FW7705 Weather Reports


Display with metric or nautical units.
time (UTC)temp
F
wind
direction
speed
MPH
gust
MPH
rain 1hr
in
rain 24hr
in
rain mn
in
humidity
%
barometer
mb
20260902043912 67 55 0.0 0.0 0.00 0.00 0.00 99 1017.3
20260902043407 67 55 0.0 0.0 0.00 0.00 0.00 99 1017.5
20260902042902 67 55 0.0 0.0 0.00 0.00 0.00 99 1017.5
20260902042401 67 55 0.0 0.0 0.00 0.00 0.00 99 1017.4
20260902041857 67 55 0.0 0.0 0.00 0.00 0.00 99 1017.3
20260902041357 68 55 0.0 0.0 0.00 0.00 0.00 99 1017.5
20260902040856 68 55 0.0 1.0 0.00 0.00 0.00 99 1017.1
20260902040352 68 55 0.0 0.0 0.00 0.00 0.00 99 1017.2
20260902035850 68 55 1.0 1.0 0.00 0.23 0.23 99 1017.4
20260902035346 69 55 0.0 0.0 0.00 0.23 0.23 99 1017.2
20260902034844 68 55 0.0 1.0 0.00 0.23 0.23 99 1017.0
20260902034340 68 55 0.0 0.0 0.00 0.23 0.23 99 1017.2
20260902033838 68 55 0.0 0.0 0.00 0.23 0.23 99 1017.3
20260902033333 68 55 0.0 0.0 0.00 0.23 0.23 99 1017.3
20260902032832 69 55 0.0 0.0 0.00 0.23 0.23 99 1017.0
20260902032327 69 55 0.0 1.0 0.00 0.23 0.23 99 1016.9
20260902031827 69 55 1.0 1.0 0.00 0.23 0.23 99 1017.1
20260902031323 69 55 0.0 1.0 0.00 0.23 0.23 99 1017.1
20260902030819 69 55 0.0 0.0 0.00 0.23 0.23 99 1017.3
20260902030313 69 55 0.0 0.0 0.00 0.23 0.23 99 1017.1
20260902025812 69 55 1.0 1.0 0.00 0.23 0.23 99 1017.2
20260902025308 69 55 0.0 0.0 0.00 0.23 0.23 99 1017.1
20260902024802 69 55 0.0 0.0 0.00 0.23 0.23 99 1017.4
20260902024258 69 55 0.0 0.0 0.00 0.23 0.23 99 1017.2
20260902023753 69 55 0.0 0.0 0.00 0.23 0.23 99 1017.0
20260902023249 69 55 0.0 0.0 0.00 0.23 0.23 99 1017.0
20260902022748 69 55 1.0 1.0 0.00 0.23 0.23 99 1017.1
20260902022243 69 55 0.0 0.0 0.00 0.23 0.23 99 1017.2
20260902021739 70 55 0.0 0.0 0.00 0.23 0.23 99 1017.2
20260902021238 70 55 1.0 1.0 0.00 0.23 0.23 99 1017.0
20260902020735 70 55 0.0 0.0 0.00 0.23 0.23 99 1017.0
20260902020231 70 55 0.0 0.0 0.00 0.23 0.23 99 1016.9
20260902015726 70 55 0.0 0.0 0.00 0.23 0.23 99 1017.0
20260902015222 70 55 0.0 0.0 0.00 0.23 0.23 99 1017.0
20260902014717 70 55 0.0 0.0 0.00 0.23 0.23 99 1017.1
20260902014214 70 55 1.0 1.0 0.00 0.23 0.23 99 1016.9
20260902013712 70 55 0.0 0.0 0.00 0.23 0.23 99 1017.1
20260902013208 70 55 0.0 0.0 0.00 0.23 0.23 99 1016.9
20260902012703 70 55 0.0 0.0 0.00 0.23 0.23 99 1017.1
20260902012159 70 55 0.0 0.0 0.00 0.23 0.23 99 1016.8
20260902011654 70 55 0.0 0.0 0.00 0.23 0.23 99 1016.9
20260902011149 70 55 0.0 1.0 0.00 0.23 0.23 99 1016.8
20260902010648 70 55 0.0 0.0 0.00 0.23 0.23 99 1016.9
20260902010144 70 55 0.0 0.0 0.00 0.23 0.23 99 1016.6
20260902005642 70 55 0.0 0.0 0.00 0.23 0.23 99 1016.8
20260902005138 70 55 0.0 0.0 0.00 0.23 0.23 98 1016.3
20260902004637 71 55 0.0 0.0 0.00 0.23 0.23 98 1016.3
20260902004132 71 55 1.0 1.0 0.00 0.23 0.23 98 1016.3
20260902003628 71 55 0.0 0.0 0.00 0.23 0.23 98 1016.2
20260902003123 71 55 0.0 1.0 0.00 0.23 0.23 98 1016.0
20260902002618 71 55 0.0 0.0 0.00 0.23 0.23 98 1016.1
20260902002113 72 55 0.0 0.0 0.00 0.23 0.23 98 1016.1
20260902001608 71 55 0.0 0.0 0.00 0.23 0.23 98 1015.8
20260902001104 71 55 0.0 0.0 0.00 0.23 0.23 98 1016.0
20260902000604 71 55 0.0 0.0 0.00 0.23 0.23 98 1015.9
20260902000059 71 55 0.0 1.0 0.00 0.23 0.23 98 1015.9
20260901235558 71 55 1.0 1.0 0.00 0.23 0.23 98 1015.9
20260901235054 71 55 0.0 0.0 0.00 0.23 0.23 97 1015.8
20260901234553 72 55 1.0 1.0 0.00 0.23 0.23 97 1015.7
20260901234048 72 55 0.0 0.0 0.00 0.23 0.23 96 1015.7
20260901233548 72 55 0.0 0.0 0.00 0.23 0.23 96 1015.8
20260901233044 72 55 0.0 0.0 0.00 0.23 0.23 95 1015.8
20260901232539 73 55 1.0 1.0 0.00 0.23 0.23 94 1015.8
20260901232035 74 55 1.0 1.0 0.00 0.23 0.23 93 1015.5
20260901231531 75 54 1.0 1.0 0.00 0.23 0.23 91 1015.5
20260901231028 76 54 0.0 0.0 0.00 0.23 0.23 89 1015.5
20260901230527 77 53 0.0 0.0 0.00 0.23 0.23 87 1015.6
20260901230022 77 53 0.0 0.0 0.00 0.23 0.23 86 1015.6
20260901225518 77 7 2.0 2.0 0.00 0.23 0.23 85 1015.6
20260901225012 78 26 2.0 2.0 0.00 0.23 0.23 84 1015.6
20260901224508 78 38 1.0 1.0 0.00 0.23 0.23 84 1015.3
20260901224004 78 38 1.0 1.0 0.00 0.23 0.23 83 1015.6
20260901223459 78 39 1.0 1.0 0.00 0.23 0.23 83 1015.5
20260901222954 78 16 3.0 3.0 0.00 0.23 0.23 83 1015.6
20260901222450 79 46 1.0 1.0 0.00 0.23 0.23 82 1015.5
20260901221946 79 336 1.0 1.0 0.00 0.23 0.23 82 1015.6
20260901221442 79 7 2.0 2.0 0.00 0.23 0.23 82 1015.4
20260901220942 78 18 1.0 2.0 0.00 0.23 0.23 83 1015.6
20260901220441 78 29 1.0 1.0 0.00 0.23 0.23 85 1015.5
20260901215940 77 45 1.0 1.0 0.00 0.23 0.23 86 1015.7
20260901215439 77 45 2.0 3.0 0.00 0.23 0.23 85 1015.6
20260901214938 78 41 1.0 1.0 0.00 0.23 0.23 84 1015.7
20260901214437 78 40 2.0 2.0 0.00 0.23 0.23 82 1015.6
20260901213938 78 56 1.0 2.0 0.00 0.23 0.23 81 1015.4
20260901213432 80 17 2.0 3.0 0.00 0.23 0.23 80 1015.5
20260901212931 80 334 2.0 2.0 0.00 0.23 0.23 80 1015.4
20260901212427 80 45 3.0 3.0 0.00 0.23 0.23 79 1015.4
20260901211924 80 65 1.0 2.0 0.00 0.23 0.23 78 1015.1
20260901211419 79 37 3.0 4.0 0.00 0.23 0.23 79 1015.1
20260901210915 79 15 2.0 2.0 0.00 0.23 0.23 82 1015.2
20260901210410 79 47 3.0 3.0 0.00 0.23 0.23 82 1015.1
20260901205906 78 294 1.0 1.0 0.00 0.23 0.23 84 1015.4
20260901205400 78 16 3.0 3.0 0.00 0.23 0.23 85 1015.4
20260901204856 78 70 1.0 1.0 0.00 0.23 0.23 83 1015.4
20260901204352 77 13 1.0 1.0 0.00 0.23 0.23 86 1015.6
20260901203853 78 281 2.0 2.0 0.00 0.23 0.23 84 1015.5
20260901203352 78 257 2.0 2.0 0.00 0.23 0.23 85 1015.6
20260901202847 78 356 2.0 2.0 0.00 0.23 0.23 84 1015.4
20260901202342 78 34 2.0 2.0 0.00 0.23 0.23 85 1015.4
20260901201838 77 181 1.0 1.0 0.00 0.23 0.23 85 1015.5
20260901201338 77 19 0.0 0.0 0.00 0.23 0.23 86 1015.5
20260901200832 77 21 2.0 2.0 0.00 0.23 0.23 86 1015.5
20260901200328 77 25 3.0 4.0 0.00 0.23 0.23 85 1015.7
20260901195826 77 6 3.0 4.0 0.00 0.23 0.23 85 1015.6
20260901195325 77 174 1.0 2.0 0.00 0.23 0.23 86 1015.6
20260901194821 77 23 1.0 2.0 0.00 0.23 0.23 85 1015.6
20260901194320 77 9 3.0 3.0 0.00 0.23 0.23 86 1015.8
20260901193817 77 51 2.0 2.0 0.00 0.23 0.23 85 1015.6
20260901193315 77 62 1.0 1.0 0.00 0.23 0.23 86 1015.7
20260901192810 78 17 1.0 2.0 0.00 0.23 0.23 85 1015.5
20260901192306 78 38 2.0 2.0 0.00 0.23 0.23 86 1015.5
20260901191802 78 233 2.0 2.0 0.00 0.23 0.23 87 1015.6
20260901191257 77 214 0.0 0.0 0.00 0.23 0.23 86 1015.8
20260901190754 77 213 0.0 1.0 0.00 0.23 0.23 87 1015.5
20260901190253 77 212 1.0 1.0 0.00 0.23 0.23 89 1015.7
20260901185752 77 212 0.0 1.0 0.00 0.23 0.23 88 1015.5
20260901185251 77 179 0.0 0.0 0.00 0.23 0.23 89 1015.4
20260901184747 77 190 1.0 1.0 0.00 0.23 0.23 87 1015.4
20260901184241 77 268 1.0 1.0 0.00 0.23 0.23 89 1015.4
20260901183737 77 289 2.0 3.0 0.00 0.23 0.23 86 1015.3
20260901183237 77 274 2.0 2.0 0.00 0.23 0.23 88 1015.4
20260901182733 76 306 3.0 3.0 0.00 0.23 0.23 89 1015.4
20260901182232 76 184 1.0 1.0 0.00 0.23 0.23 89 1015.3
20260901181728 76 284 2.0 2.0 0.00 0.23 0.23 88 1015.3
20260901181227 77 290 1.0 2.0 0.00 0.23 0.23 86 1015.1
20260901180726 77 219 2.0 2.0 0.00 0.23 0.23 88 1015.3
20260901180226 76 216 1.0 1.0 0.00 0.23 0.23 88 1015.2
20260901175725 76 175 1.0 1.0 0.00 0.23 0.23 88 1015.1
20260901175220 76 174 0.0 0.0 0.00 0.23 0.23 88 1015.2
20260901174715 75 209 0.0 1.0 0.00 0.23 0.23 89 1015.1
20260901174211 75 187 1.0 1.0 0.00 0.23 0.23 89 1015.2
20260901173706 75 159 1.0 1.0 0.00 0.23 0.23 89 1015.2
20260901173202 75 278 4.0 4.0 0.00 0.23 0.23 91 1015.2
20260901172658 75 170 0.0 0.0 0.00 0.23 0.23 91 1015.2
20260901172156 75 186 1.0 1.0 0.00 0.23 0.23 90 1015.0
20260901171655 75 170 1.0 1.0 0.00 0.23 0.23 90 1015.2
20260901171155 75 149 0.0 0.0 0.00 0.23 0.23 90 1015.2
20260901170654 75 172 2.0 2.0 0.00 0.23 0.23 89 1015.2
20260901170149 74 145 1.0 2.0 0.00 0.23 0.23 92 1015.1
20260901165648 73 152 0.0 0.0 0.00 0.23 0.23 95 1015.0
20260901165143 72 138 1.0 1.0 0.00 0.23 0.23 96 1015.3
20260901164639 72 164 1.0 1.0 0.00 0.23 0.23 96 1015.1
20260901164134 72 213 3.0 3.0 0.00 0.23 0.23 96 1015.3
20260901163630 72 200 1.0 1.0 0.00 0.23 0.23 96 1015.3
20260901163128 72 170 1.0 1.0 0.00 0.23 0.23 95 1015.3
20260901162624 72 167 1.0 1.0 0.00 0.23 0.23 95 1015.3
20260901162123 72 128 0.0 1.0 0.00 0.23 0.23 95 1015.4
20260901161622 72 163 0.0 0.0 0.00 0.23 0.23 94 1015.4
20260901161122 72 156 0.0 0.0 0.00 0.23 0.23 95 1015.5
20260901160619 72 155 0.0 0.0 0.00 0.23 0.23 95 1015.5
20260901160114 72 180 0.0 1.0 0.00 0.23 0.23 95 1015.4
20260901155612 72 150 0.0 0.0 0.00 0.23 0.23 95 1015.3
20260901155108 72 138 0.0 1.0 0.00 0.23 0.23 95 1015.3
20260901154608 72 145 0.0 1.0 0.00 0.23 0.23 97 1015.2
20260901154103 71 150 2.0 3.0 0.00 0.23 0.23 98 1015.2
20260901153558 71 184 2.0 2.0 0.00 0.23 0.23 99 1015.2
20260901153057 70 157 0.0 0.0 0.00 0.23 0.23 99 1015.4
20260901152552 70 148 2.0 2.0 0.00 0.23 0.23 99 1015.4
20260901152051 70 142 1.0 1.0 0.00 0.23 0.23 99 1015.4
20260901151547 70 230 2.0 3.0 0.00 0.23 0.23 99 1015.6
20260901151046 70 178 0.0 0.0 0.00 0.23 0.23 99 1015.7
20260901150545 70 193 1.0 2.0 0.00 0.23 0.23 99 1015.6
20260901150043 70 154 0.0 1.0 0.00 0.23 0.23 99 1015.5
20260901145537 70 178 0.0 0.0 0.00 0.23 0.23 99 1015.5
20260901145036 70 239 2.0 3.0 0.00 0.23 0.23 99 1015.5
20260901144532 69 141 1.0 1.0 0.00 0.23 0.23 99 1015.3
20260901144027 69 222 2.0 3.0 0.00 0.23 0.23 99 1015.4
20260901143523 69 144 2.0 3.0 0.00 0.23 0.23 99 1015.4
20260901143019 70 194 2.0 2.0 0.00 0.23 0.23 99 1015.4
20260901142520 70 257 2.0 2.0 0.00 0.23 0.23 99 1015.3
20260901142015 70 233 2.0 2.0 0.00 0.23 0.23 99 1015.2
20260901141514 70 212 2.0 2.0 0.00 0.23 0.23 99 1015.4
20260901141010 69 204 2.0 2.0 0.00 0.23 0.23 99 1015.3
20260901140508 69 136 0.0 1.0 0.00 0.23 0.23 99 1015.2
20260901140003 69 135 1.0 1.0 0.00 0.23 0.23 99 1015.2
20260901135501 69 115 1.0 1.0 0.00 0.23 0.23 99 1015.5
20260901134957 69 166 1.0 1.0 0.00 0.23 0.23 99 1015.3
20260901134453 69 166 0.0 0.0 0.00 0.23 0.23 99 1015.3
20260901133948 68 137 0.0 0.0 0.00 0.23 0.23 99 1015.1
20260901133447 69 170 1.0 1.0 0.00 0.23 0.23 99 1015.5
20260901132946 68 171 0.0 1.0 0.00 0.23 0.23 99 1015.5
20260901132445 68 126 0.0 1.0 0.00 0.23 0.23 99 1015.6
20260901131945 68 154 0.0 0.0 0.00 0.23 0.23 99 1015.5
20260901131444 68 134 0.0 0.0 0.00 0.23 0.23 99 1015.8
20260901130940 68 134 0.0 1.0 0.00 0.23 0.23 99 1015.7
20260901130435 68 134 0.0 0.0 0.00 0.23 0.23 99 1015.5
20260901125932 68 111 0.0 0.0 0.00 0.23 0.23 99 1015.7
20260901125427 68 111 0.0 0.0 0.00 0.23 0.23 99 1015.5
20260901124926 68 111 0.0 0.0 0.00 0.23 0.23 99 1015.6
20260901124422 68 104 0.0 0.0 0.00 0.23 0.23 99 1015.7
20260901123917 68 136 1.0 1.0 0.00 0.23 0.23 99 1015.5
20260901123412 67 125 0.0 0.0 0.00 0.23 0.23 99 1016.1
20260901122909 67 123 1.0 1.0 0.00 0.23 0.23 99 1016.0
20260901122404 67 131 0.0 1.0 0.00 0.23 0.23 99 1016.1
20260901121904 67 127 0.0 1.0 0.00 0.23 0.23 99 1016.1
20260901121359 67 154 0.0 0.0 0.00 0.23 0.23 99 1016.3
20260901120854 67 141 1.0 1.0 0.00 0.23 0.23 99 1016.3
20260901120348 67 128 0.0 0.0 0.00 0.23 0.23 99 1016.0
20260901115844 67 133 0.0 0.0 0.00 0.23 0.23 99 1015.8
20260901115339 67 133 0.0 1.0 0.00 0.23 0.23 99 1016.1
20260901114838 67 185 1.0 1.0 0.07 0.23 0.23 99 1016.1
20260901114337 67 160 0.0 0.0 0.07 0.23 0.23 99 1015.9
20260901113835 67 100 1.0 1.0 0.12 0.22 0.22 99 1015.8
20260901113335 67 54 2.0 2.0 0.35 0.22 0.22 99 1016.0
20260901112830 67 111 0.0 0.0 0.59 0.20 0.20 99 1016.0
20260901112329 66 112 0.0 0.0 0.42 0.16 0.16 99 1015.9
20260901111825 66 109 2.0 2.0 0.07 0.10 0.10 99 1016.2
20260901111323 66 110 0.0 0.0 0.00 0.09 0.09 99 1015.9
20260901110822 66 63 0.0 1.0 0.00 0.09 0.09 99 1015.8
20260901110318 66 88 1.0 2.0 0.00 0.09 0.09 99 1015.7
20260901105814 66 99 1.0 1.0 0.00 0.09 0.09 99 1015.5
20260901105314 66 102 0.0 0.0 0.05 0.09 0.09 99 1015.2
20260901104810 66 102 1.0 1.0 0.05 0.09 0.09 99 1015.6
20260901104306 66 81 1.0 1.0 0.00 0.08 0.08 99 1015.7
20260901103802 65 169 0.0 0.0 0.00 0.08 0.08 99 1015.6
20260901103301 65 170 0.0 0.0 0.07 0.08 0.08 99 1015.7
20260901102756 65 170 0.0 0.0 0.12 0.08 0.08 99 1015.5
20260901102256 65 170 0.0 0.0 0.05 0.07 0.07 99 1015.6
20260901101752 65 170 0.0 0.0 0.00 0.06 0.06 99 1015.4
20260901101251 65 170 0.0 0.0 0.00 0.06 0.06 99 1015.3
20260901100751 66 170 0.0 0.0 0.00 0.06 0.06 99 1015.3
20260901100246 65 170 0.0 1.0 0.00 0.06 0.06 99 1015.4
20260901095744 65 170 0.0 0.0 0.00 0.06 0.06 99 1015.5
20260901095242 65 170 0.0 0.0 0.00 0.06 0.06 99 1015.6
20260901094736 65 170 0.0 0.0 0.00 0.06 0.06 99 1015.5
20260901094231 65 170 0.0 0.0 0.00 0.06 0.06 99 1015.6
20260901093727 65 169 0.0 1.0 0.00 0.06 0.06 99 1015.5
20260901093225 65 169 0.0 0.0 0.00 0.06 0.06 99 1015.3
20260901092722 65 169 0.0 0.0 0.00 0.06 0.06 99 1015.7
20260901092217 65 169 0.0 0.0 0.00 0.06 0.06 99 1015.8
20260901091713 65 169 1.0 1.0 0.00 0.06 0.06 99 1015.8
20260901091208 65 168 0.0 0.0 0.00 0.06 0.06 99 1015.6
20260901090702 65 168 0.0 0.0 0.00 0.06 0.06 99 1015.5
20260901090158 65 180 2.0 2.0 0.00 0.06 0.06 99 1015.8
20260901085654 65 151 1.0 1.0 0.00 0.06 0.06 99 1015.9
20260901085149 66 141 0.0 1.0 0.00 0.06 0.06 99 1015.8
20260901084645 66 141 0.0 0.0 0.00 0.06 0.06 99 1015.9
20260901084142 66 141 0.0 0.0 0.00 0.06 0.06 99 1016.0
20260901083641 66 141 0.0 0.0 0.00 0.06 0.06 99 1016.0
20260901083139 66 141 0.0 0.0 0.00 0.06 0.06 99 1016.2
20260901082634 66 141 0.0 0.0 0.00 0.06 0.06 99 1016.3
20260901082130 66 141 0.0 0.0 0.12 0.06 0.06 99 1016.2
20260901081625 66 141 0.0 0.0 0.24 0.06 0.06 99 1016.2
20260901081120 66 141 0.0 0.0 0.17 0.05 0.05 99 1016.4
20260901080619 66 141 0.0 0.0 0.12 0.03 0.03 99 1016.5
20260901080118 66 141 0.0 0.0 0.07 0.02 0.02 99 1016.5
20260901075614 66 141 0.0 0.0 0.00 0.01 0.01 99 1016.6
20260901075114 66 141 0.0 0.0 0.00 0.01 0.01 99 1016.3
20260901074613 66 141 0.0 0.0 0.00 0.01 0.01 99 1016.5
20260901074114 66 141 0.0 0.0 0.00 0.01 0.01 99 1016.3
20260901073610 66 141 0.0 0.0 0.00 0.01 0.01 99 1016.6
20260901073105 66 141 0.0 0.0 0.00 0.01 0.01 99 1016.5
20260901072600 66 141 0.0 0.0 0.00 0.01 0.01 99 1016.2
20260901072055 66 142 0.0 0.0 0.00 0.01 0.01 99 1016.1
20260901071555 66 142 0.0 0.0 0.00 0.01 0.01 99 1016.4
20260901071054 66 142 0.0 0.0 0.00 0.01 0.01 99 1016.5
20260901070549 66 142 0.0 0.0 0.00 0.01 0.01 99 1016.5
20260901070044 66 141 0.0 0.0 0.00 0.01 0.01 99 1016.5
20260901065539 66 141 0.0 0.0 0.00 0.01 0.01 99 1016.5
20260901065033 66 141 0.0 1.0 0.00 0.01 0.01 99 1016.6
20260901064530 66 141 0.0 0.0 0.00 0.01 0.01 99 1016.6
20260901064027 66 141 0.0 0.0 0.00 0.01 0.01 99 1016.6
20260901063523 66 141 0.0 0.0 0.00 0.01 0.01 99 1016.6
20260901063019 66 141 0.0 0.0 0.00 0.01 0.01 99 1016.5
20260901062515 66 141 0.0 0.0 0.00 0.01 0.01 99 1016.9
20260901062011 66 141 0.0 0.0 0.00 0.01 0.01 99 1016.9
20260901061507 66 141 0.0 0.0 0.00 0.01 0.01 99 1016.9
20260901061007 66 141 0.0 0.0 0.00 0.01 0.01 99 1016.8
20260901060501 66 141 0.0 0.0 0.00 0.01 0.01 99 1017.0
20260901060001 66 141 0.0 0.0 0.00 0.01 0.01 99 1017.0
20260901055457 66 141 0.0 0.0 0.00 0.01 0.01 99 1016.9
20260901054954 66 141 0.0 1.0 0.00 0.01 0.01 99 1017.2
20260901054451 66 140 1.0 2.0 0.00 0.01 0.01 99 1017.1
20260901053947 65 141 0.0 0.0 0.00 0.01 0.01 99 1017.2
20260901053442 65 141 0.0 0.0 0.00 0.01 0.01 99 1016.9
20260901052937 65 141 0.0 0.0 0.07 0.01 0.01 99 1017.4
20260901052433 65 141 0.0 0.0 0.07 0.01 0.01 99 1017.3
20260901051932 65 141 0.0 0.0 0.07 0.01 0.01 99 1017.3
20260901051428 66 141 0.0 1.0 0.00 0.00 0.00 99 1017.2
20260901050927 66 141 0.0 0.0 0.00 0.00 0.00 99 1017.2
20260901050423 66 141 0.0 0.0 0.00 0.00 0.00 99 1017.1
20260901045923 66 141 0.0 0.0 0.00 0.00 0.00 99 1017.5
20260901045418 66 141 0.0 0.0 0.00 0.00 0.00 99 1017.3
20260901044912 66 141 0.0 0.0 0.00 0.00 0.00 99 1017.4
20260901044409 66 141 1.0 1.0 0.00 0.00 0.00 99 1017.4